[[{"header":{"parameterUnit":"m.s-1","parameterCategory":1,"la1":30.2991,"la2":30.254,"lo1":-89.0895,"lo2":-89.0444,"dy":0.0017,"dx":0.0017,"nx":28,"ny":28,"refTime":"2024-12-25T03:00:00:Z","depth":0,"parameterNumber":2,"parameterNumberName":"U-component_of_WINDS"},"data":[0,0,0,0,0,0,0,0,0,0,0,0,0,0,0,0,0,0,0,0,0,0,0,0,0,0,0,0,0,0,0,0,0,0,0,0,0,0,0,0,0,0,0,0,0,0,0,0,0,0,0,0,0,0,0,0,0,0,-6.6912,-6.6913,0,-6.6967,-6.6968,-6.6968,-6.6883,-6.688,-6.6877,-6.6874,-6.6931,-6.6935,-6.6939,0,0,0,0,0,0,0,0,0,0,0,0,0,-6.6735,-6.6739,-6.6912,-6.6913,-6.6914,-6.6967,-6.6968,-6.6969,-6.6884,-6.688,-6.6877,-6.6873,-6.693,-6.6935,-6.694,0,0,0,0,0,0,0,0,0,0,0,0,0,-6.6803,-6.674,-6.6912,-6.6878,-6.6875,-6.6967,-6.6968,-6.6969,-6.6884,-6.688,-6.6876,-6.6871,-6.6928,-6.6934,-6.694,-6.7068,0,0,-6.696,-6.6963,0,0,0,0,0,0,0,0,-6.6799,-6.681,-6.6882,-6.688,-6.6878,-6.6914,-6.6926,-6.7002,-6.6886,-6.6881,-6.6874,-6.6869,-6.6929,-6.6935,-6.6955,-6.7071,-6.7073,-6.696,-6.6964,-6.6967,-6.6969,0,0,0,0,0,0,0,-6.6795,-6.6807,-6.6934,-6.6883,-6.6881,-6.686,-6.6865,-6.694,-6.6929,-6.6881,-6.6875,-6.6883,-6.6927,-6.6949,-6.6956,-6.7074,-6.696,-6.6966,-6.697,-6.6972,-6.7299,-6.7303,0,0,0,0,0,0,-6.6794,-6.6803,-6.6932,-6.6935,-6.6827,-6.6867,-6.6872,-6.6907,-6.6928,-6.6927,-6.6886,-6.6878,-6.694,-6.6948,-6.6957,-6.7108,-6.6967,-6.6973,-6.6977,-6.7294,-6.73,-6.7305,0,0,0,0,0,0,-6.6791,-6.6806,-6.693,-6.6868,-6.6882,-6.6874,-6.6914,-6.691,-6.6932,-6.6932,-6.693,-6.6911,-6.6937,-6.6948,-6.7041,-6.7108,-6.6976,-6.6982,-6.7288,-6.7296,-6.7302,-6.741,0,0,0,0,0,0,-6.6786,-6.6806,-6.6854,-6.687,-6.6886,-6.7013,-6.6918,-6.6914,-6.6943,-6.6933,-6.6954,-6.6954,-6.6934,-6.7032,-6.7048,-6.7115,-6.6987,-6.7282,-6.7291,-6.73,-6.7401,-6.742,-6.7437,0,0,0,0,0,-6.678,-6.6882,-6.6857,-6.6872,-6.6946,-6.7017,-6.7026,-6.7002,-6.6949,-6.6997,-6.6998,-6.6953,-6.71,-6.7043,-6.7059,-6.7129,-6.7278,-6.7289,-6.7299,-6.7392,-6.7416,-6.7437,0,0,0,0,0,0,-6.6873,-6.6883,-6.6855,-6.6965,-6.6991,-6.7002,-6.7062,-6.7028,-6.7069,-6.7058,-6.7027,-6.7032,-6.7132,-6.714,-6.7077,-6.7255,-6.718,-6.7194,-6.7245,-6.7268,-6.7286,-6.728,-6.6992,0,0,0,0,0,-6.6907,-6.6964,-6.697,-6.7066,-6.7081,-6.707,-6.71,-6.708,-6.7105,-6.7115,-6.7122,-6.7148,-6.72,-6.7235,-6.7283,-6.7403,-6.7406,-6.7459,-6.7478,-6.7493,-6.7505,-6.7569,-6.7592,-6.7341,-6.7341,-6.734,0,0,-6.6976,-6.6989,-6.7027,-6.7086,-6.7103,-6.7163,-6.7079,-6.7146,-6.719,-6.7125,-6.7213,-6.722,-6.7247,-6.7354,-6.7402,-6.7364,-6.7576,-6.7507,-6.7518,-6.7522,-6.7582,-6.7606,-6.7627,-6.7348,-6.7347,-6.7345,0,0,-6.7133,-6.7149,-6.7231,-6.7251,-6.7278,-6.7271,-6.7291,-6.7308,-6.731,-6.7398,-6.7351,-6.7403,-6.7494,-6.7515,-6.7538,-6.7706,-6.7666,-6.7723,-6.7817,-6.788,-6.7899,-6.7917,-6.7975,-6.7997,-6.7735,-6.7736,-6.7736,0,-6.7215,-6.7303,-6.7277,-6.7348,-6.7375,-6.732,-6.7403,-6.7424,-6.7466,-6.7486,-6.7444,-6.7556,-6.7571,-6.7682,-6.7723,-6.7744,-6.7766,-6.7718,-6.7899,-6.7916,-6.7932,-6.7987,-6.8009,-6.7742,-6.7742,-6.7741,-6.774,0,-6.7403,-6.7465,-6.7528,-6.757,-6.7605,-6.7682,-6.7668,-6.7706,-6.7684,-6.7681,-6.7772,-6.7789,-6.7838,-6.7864,-6.7843,-6.7973,-6.7949,-6.7904,-6.7827,-6.7963,-6.8014,-6.8035,-6.7752,-6.7749,-6.7747,-6.7746,0,0,-6.7616,-6.7645,-6.7668,-6.7687,-6.7715,-6.7763,-6.7838,-6.7887,-6.792,-6.7953,-6.8014,-6.8093,-6.8051,-6.8077,-6.8058,-6.8114,-6.8245,-6.8062,-6.8062,-6.8093,-6.8388,-6.842,-6.8445,-6.822,-6.8224,-6.8227,-6.8385,0,-6.777,-6.7899,-6.7879,-6.8003,-6.806,-6.801,-6.8075,-6.81,-6.81,-6.8149,-6.815,-6.8205,-6.8147,-6.8163,-6.8216,-6.8218,-6.8303,-6.8206,-6.8276,-6.8279,-6.8267,-6.8472,-6.8506,-6.8654,-6.8405,-6.8409,-6.8411,0,-6.7967,-6.8006,-6.8136,-6.8156,-6.8179,-6.8238,-6.8282,-6.833,-6.8357,-6.8354,-6.8385,-6.8356,-6.8431,-6.8356,-6.8459,-6.8394,-6.8422,-6.8427,-6.8432,-6.8435,-6.8351,-6.8479,-6.8701,-6.8722,-6.8443,-6.8441,-6.8438,0,-6.8107,-6.8193,-6.8282,-6.83,-6.8326,-6.8368,-6.8381,-6.8405,-6.8436,-6.8475,-6.8495,-6.8543,-6.8569,-6.8607,-6.8592,-6.8539,-6.8698,-6.8622,-6.8696,-6.8697,-6.8729,-6.8726,-6.8956,-6.8752,-6.8752,-6.8751,-6.8751,0,-6.828,-6.836,-6.8345,-6.8399,-6.8489,-6.8467,-6.8556,-6.8563,-6.8585,-6.8639,-6.8601,-6.8653,-6.8632,-6.8684,-6.8673,-6.876,-6.8772,-6.8771,-6.8766,-6.8773,-6.8773,-6.8788,-6.8776,-6.8757,-6.8756,-6.8755,-6.8754,0,-6.8449,-6.8443,-6.8536,-6.8554,-6.8561,-6.8626,-6.8641,-6.8692,-6.8691,-6.8761,-6.8776,-6.8774,-6.8833,-6.8823,-6.8888,-6.8881,-6.8988,-6.8973,-6.8979,-6.8974,-6.9048,-6.904,-6.9293,-6.9325,-6.9103,-6.9105,-6.9107,0,-6.8558,-6.862,-6.8645,-6.8679,-6.8695,-6.8751,-6.8783,-6.8765,-6.88,-6.8837,-6.8884,-6.894,-6.8982,-6.9079,-6.9083,-6.9133,-6.9117,-6.9202,-6.9124,-6.9128,-6.9115,-6.9111,-6.9116,-6.9216,-6.9219,-6.9221,-6.9223,0,-6.8752,-6.8746,-6.8794,-6.8842,-6.8882,-6.8918,-6.895,-6.8981,-6.8966,-6.9007,-6.9067,-6.9101,-6.9168,-6.9223,-6.927,-6.9284,-6.9251,-6.9248,-6.9267,-6.9273,-6.9272,-6.9271,-6.9018,-6.9241,-6.924,-6.9238,-6.9237,-6.9236,-6.8893,-6.8945,-6.8971,-6.9026,-6.905,-6.9082,-6.913,-6.9136,-6.9186,-6.9238,-6.9226,-6.9293,-6.9321,-6.938,-6.94,-6.9452,-6.9421,-6.9449,-6.9456,-6.9463,-6.9471,-6.9267,-6.9461,-6.9461,-6.946,-6.946,-6.946,0,-6.9083,-6.9098,-6.9149,-6.9196,-6.924,-6.9207,-6.9242,-6.9281,-6.9341,-6.9369,-6.9413,-6.9482,-6.9537,-6.9546,-6.9598,-6.9638,-6.9625,-6.9652,-6.9647,-6.9651,-6.9497,-6.9474,-6.9663,-6.9663,-6.9663,-6.9662,-6.9662,-6.9662,-6.9186,-6.9272,-6.927,-6.9368,-6.9383,-6.9448,-6.9471,-6.9501,-6.9523,-6.9602,-6.9647,-6.9654,-6.9675,-6.9729,-6.9777,-6.9779,-6.9798,-6.9832,-6.9827,-6.9682,-6.9662,-6.9642,-6.962,-6.9837,-6.9837,-6.9976,-6.9978,-6.9979]},{"header":{"parameterUnit":"m.s-1","parameterCategory":1,"la1":30.2991,"la2":30.254,"lo1":-89.0895,"lo2":-89.0444,"dy":0.0017,"dx":0.0017,"nx":28,"ny":28,"refTime":"2024-12-25T03:00:00:Z","depth":0,"parameterNumber":3,"parameterNumberName":"V-component_of_WINDS"},"data":[0,0,0,0,0,0,0,0,0,0,0,0,0,0,0,0,0,0,0,0,0,0,0,0,0,0,0,0,0,0,0,0,0,0,0,0,0,0,0,0,0,0,0,0,0,0,0,0,0,0,0,0,0,0,0,0,0,0,0.3689,0.3689,0,0.3733,0.3733,0.3734,0.377,0.3771,0.3771,0.3771,0.3815,0.3816,0.3817,0,0,0,0,0,0,0,0,0,0,0,0,0,0.3636,0.3637,0.3688,0.3689,0.369,0.3733,0.3733,0.3734,0.377,0.3771,0.3771,0.3772,0.3815,0.3816,0.3817,0,0,0,0,0,0,0,0,0,0,0,0,0,0.3667,0.3637,0.3688,0.3713,0.3716,0.3733,0.3733,0.3734,0.377,0.3771,0.3771,0.3772,0.3815,0.3816,0.3817,0.3813,0,0,0.3821,0.3821,0,0,0,0,0,0,0,0,0.3665,0.3669,0.3709,0.3711,0.3714,0.3747,0.3731,0.376,0.377,0.3749,0.3771,0.3772,0.3792,0.3795,0.3802,0.3815,0.3817,0.3821,0.3821,0.3822,0.3822,0,0,0,0,0,0,0,0.3663,0.3667,0.3706,0.3709,0.3713,0.3722,0.3727,0.3737,0.3767,0.3751,0.3754,0.3759,0.3793,0.3801,0.3803,0.3817,0.3821,0.3822,0.3823,0.3823,0.3832,0.3831,0,0,0,0,0,0,0.3657,0.3665,0.3705,0.3707,0.3691,0.3722,0.3728,0.3736,0.3767,0.3772,0.3758,0.376,0.3798,0.3802,0.3805,0.3804,0.3822,0.3823,0.3824,0.3832,0.3832,0.3831,0,0,0,0,0,0,0.3656,0.366,0.3703,0.3687,0.3693,0.3723,0.3731,0.3736,0.3744,0.3772,0.3778,0.376,0.3799,0.3803,0.3811,0.3806,0.3824,0.3825,0.3833,0.3832,0.3832,0.38,0,0,0,0,0,0,0.3654,0.366,0.3658,0.3687,0.3694,0.3708,0.373,0.3737,0.3746,0.3749,0.3775,0.378,0.38,0.3809,0.3812,0.3808,0.3826,0.3834,0.3833,0.3832,0.3802,0.3799,0.3796,0,0,0,0,0,0.3652,0.3646,0.3658,0.3662,0.3693,0.3708,0.3712,0.3735,0.3745,0.3744,0.3763,0.3779,0.3806,0.381,0.3814,0.3809,0.3834,0.3833,0.3832,0.3803,0.3799,0.3796,0,0,0,0,0,0,0.3615,0.3651,0.3663,0.3667,0.3684,0.3714,0.3713,0.3729,0.3743,0.3746,0.3773,0.3779,0.3785,0.3798,0.3801,0.3808,0.3822,0.3822,0.3799,0.3796,0.3793,0.3789,0.3827,0,0,0,0,0,0.3607,0.3617,0.3647,0.3647,0.3656,0.3683,0.369,0.3707,0.3726,0.3733,0.3752,0.3769,0.3782,0.379,0.3802,0.3804,0.3811,0.3803,0.38,0.3798,0.3797,0.3801,0.3798,0.3828,0.3828,0.3828,0,0,0.3591,0.3612,0.3616,0.3641,0.3656,0.3666,0.3689,0.3697,0.3705,0.3734,0.3743,0.3758,0.378,0.3785,0.3789,0.3796,0.3791,0.3796,0.3794,0.3795,0.38,0.3797,0.3794,0.3827,0.3827,0.3827,0,0,0.3567,0.3583,0.3586,0.3602,0.3625,0.3644,0.3645,0.3673,0.3684,0.3694,0.3717,0.3727,0.3747,0.3762,0.3772,0.3757,0.3773,0.3761,0.3744,0.3748,0.3746,0.3744,0.374,0.3738,0.376,0.376,0.376,0,0.3544,0.356,0.3585,0.3594,0.3605,0.3633,0.3637,0.365,0.3676,0.3684,0.3692,0.372,0.3737,0.3747,0.3744,0.3751,0.3753,0.3757,0.3744,0.3742,0.3741,0.3737,0.3736,0.3758,0.3758,0.3758,0.3759,0,0.3531,0.3542,0.3541,0.3567,0.3578,0.3584,0.3611,0.3619,0.3636,0.3654,0.3665,0.3686,0.3704,0.3708,0.3723,0.3722,0.3726,0.3739,0.3753,0.3736,0.3733,0.3732,0.3756,0.3756,0.3757,0.3757,0,0,0.3483,0.3525,0.3525,0.3538,0.3568,0.3576,0.3584,0.3604,0.3611,0.3629,0.3637,0.3655,0.3668,0.3679,0.3697,0.37,0.3689,0.3713,0.3714,0.3709,0.369,0.3681,0.3679,0.37,0.37,0.37,0.3689,0,0.3464,0.348,0.3505,0.3513,0.3525,0.3553,0.356,0.3579,0.3597,0.3609,0.3628,0.3641,0.3657,0.3665,0.3669,0.3689,0.3686,0.369,0.3708,0.3709,0.3703,0.3677,0.3667,0.3655,0.3688,0.3688,0.3687,0,0.3444,0.3462,0.3471,0.3503,0.3508,0.3514,0.3535,0.3547,0.3569,0.3582,0.3597,0.3616,0.3627,0.3641,0.3657,0.3659,0.3669,0.368,0.368,0.3683,0.3697,0.368,0.3652,0.365,0.3686,0.3686,0.3686,0,0.341,0.3436,0.3446,0.3456,0.3492,0.3496,0.3511,0.3535,0.3546,0.3564,0.3572,0.3591,0.3602,0.3616,0.3641,0.3648,0.3655,0.367,0.3667,0.3666,0.3666,0.3666,0.364,0.3671,0.3671,0.3671,0.3671,0,0.3386,0.3391,0.3431,0.3437,0.3445,0.3474,0.348,0.3498,0.3519,0.353,0.3555,0.3564,0.3596,0.361,0.3629,0.364,0.3645,0.3656,0.3661,0.3654,0.3652,0.366,0.3662,0.3671,0.3671,0.3671,0.3671,0,0.3349,0.3376,0.3389,0.3423,0.3431,0.3435,0.3465,0.3472,0.3492,0.3505,0.351,0.3541,0.3558,0.3585,0.3609,0.3623,0.3631,0.3639,0.3624,0.3627,0.3622,0.3623,0.3601,0.36,0.363,0.363,0.363,0,0.3332,0.3337,0.3373,0.3382,0.3397,0.3411,0.3423,0.3453,0.3464,0.3492,0.3497,0.3516,0.3534,0.356,0.3585,0.3605,0.3614,0.3605,0.3617,0.361,0.3615,0.3615,0.3616,0.3602,0.3601,0.3601,0.3601,0,0.3301,0.3315,0.3331,0.3353,0.3367,0.3386,0.3405,0.3411,0.3445,0.3457,0.3476,0.3489,0.3516,0.3536,0.3559,0.3575,0.3594,0.3597,0.3598,0.359,0.3582,0.3588,0.3617,0.3597,0.3598,0.3598,0.3598,0.3598,0.3274,0.3281,0.3308,0.3326,0.3344,0.3363,0.3372,0.3394,0.3411,0.3435,0.3452,0.347,0.3495,0.3529,0.3544,0.3559,0.3567,0.3567,0.3568,0.3567,0.3565,0.3579,0.3564,0.3564,0.3564,0.3564,0.3564,0,0.3245,0.3265,0.3281,0.3309,0.3324,0.3341,0.3365,0.3376,0.3392,0.3414,0.3431,0.3454,0.3474,0.3501,0.3523,0.353,0.354,0.3535,0.3535,0.3539,0.3556,0.3554,0.3527,0.3527,0.3527,0.3527,0.3527,0.3527,0.3232,0.3245,0.3262,0.3285,0.3304,0.3323,0.3335,0.3353,0.3371,0.3396,0.3413,0.3431,0.3456,0.348,0.35,0.3507,0.3515,0.3508,0.3518,0.3534,0.3537,0.354,0.3539,0.3509,0.3509,0.3499,0.3499,0.3499]}]]